Weather History for International Falls, MN

Change the Weather History Date:

Friday, November 2, 2012

  Actual Average Record
Temperature  
Mean Temperature 28 °F 34 °F  
Max Temperature 30 °F 42 °F 67 °F (1978)
Min Temperature 25 °F 25 °F -2 °F (1951)
Degree Days  
Heating Degree Days 37 31  
Month to date heating degree days 69 62  
Since 1 July heating degree days 1391 1339  
Cooling Degree Days 0 0  
Month to date cooling degree days 0 0  
Year to date cooling degree days 222 192  
Moisture  
Dew Point 21 °F    
Average Humidity 80    
Maximum Humidity 84    
Minimum Humidity 75    
Precipitation  
Precipitation 0.00 in 0.06 in 0.62 in (2000)
Month to date precipitation 0.04 0.11  
Year to date precipitation 22.98 22.14  
Snow  
Snow 0.00 in 0.30 in 8.10 in (1992)
Month to date snowfall 0.2 0.5  
Since 1 July snowfall 1.9 2.8  
Since 1 September snowfall 1.9 2.8  
Snow Depth 0.00 in    
Sea Level Pressure  
Sea Level Pressure 30.23 in    
Wind  
Wind Speed 5 mph (NE)    
Max Wind Speed 12 mph    
Max Gust Speed 14 mph    
Visibility 10 miles    
Events      
T = Trace of Precipitation, MM = Missing Value Source: NWS Daily Summary

Daily Weather History Graph

Daily Weather History Graph

Search for Another Location

Airport:

Trip Planner

Search our weather history database for the weather conditions in past years. The results will help you decide how hot, cold, wet, or windy it might be!

Date:

Astronomy

Nov. 02, 2012 Rise Set
Actual Time 8:02 AM CDT 5:51 PM CDT
Civil Twilight 7:29 AM CDT 6:24 PM CDT
Nautical Twilight 6:51 AM CDT 7:01 PM CDT
Astronomical Twilight 6:15 AM CDT 7:38 PM CDT
Moon 8:29 PM CDT 11:33 AM CDT
Length of Visible Light 10h 55m
Length of Day
9h 49m
Waning Gibbous, 87% of the Moon is Illuminated
Nov 2
Waning Gibbous
Nov 6
Last Quarter
Nov 13
New
Nov 20
First Quarter
Nov 28
Full

Hourly Weather History & Observations

Time (CDT) Temp. Windchill Dew Point Humidity Pressure Visibility Wind Dir Wind Speed Gust Speed Precip Events Conditions
12:55 AM 28.9 °F 22.8 °F 21.9 °F 75% 30.17 in 10.0 mi North 5.8 mph - N/A   Overcast
1:55 AM 27.0 °F 21.6 °F 21.0 °F 78% 30.18 in 10.0 mi NE 4.6 mph - N/A   Mostly Cloudy
2:55 AM 27.0 °F 21.6 °F 21.0 °F 78% 30.20 in 10.0 mi North 4.6 mph - N/A   Overcast
3:55 AM 26.1 °F 18.4 °F 19.0 °F 75% 30.19 in 10.0 mi NNE 6.9 mph - N/A   Overcast
4:55 AM 26.1 °F 18.4 °F 19.0 °F 75% 30.19 in 10.0 mi North 6.9 mph - N/A   Overcast
5:55 AM 26.1 °F 18.4 °F 19.9 °F 78% 30.21 in 10.0 mi North 6.9 mph - N/A   Overcast
6:55 AM 26.1 °F 20.5 °F 19.9 °F 78% 30.22 in 10.0 mi NE 4.6 mph - N/A   Overcast
7:55 AM 25.0 °F 18.1 °F 19.9 °F 81% 30.22 in 10.0 mi North 5.8 mph - N/A   Overcast
8:15 AM 26.6 °F 21.2 °F 19.4 °F 74% 30.16 in 10.0 mi North 4.6 mph - N/A   Overcast
8:55 AM 25.0 °F 19.3 °F 19.9 °F 81% 30.24 in 10.0 mi ENE 4.6 mph - N/A   Overcast
9:55 AM 25.0 °F 17.1 °F 19.9 °F 81% 30.25 in 10.0 mi NE 6.9 mph - N/A   Overcast
10:55 AM 26.1 °F 17.6 °F 21.0 °F 81% 30.26 in 10.0 mi ENE 8.1 mph - N/A   Overcast
11:55 AM 27.0 °F 19.5 °F 21.9 °F 81% 30.26 in 10.0 mi East 6.9 mph - N/A   Overcast
12:55 PM 28.9 °F 25.2 °F 21.9 °F 75% 30.25 in 10.0 mi Variable 3.5 mph - N/A   Overcast
1:55 PM 28.0 °F 21.7 °F 21.9 °F 78% 30.25 in 10.0 mi NNE 5.8 mph - N/A   Overcast
2:20 PM 28.4 °F 22.2 °F 21.2 °F 74% 30.18 in 10.0 mi East 5.8 mph - N/A   Overcast
2:55 PM 28.9 °F 21.1 °F 21.9 °F 75% 30.23 in 10.0 mi NE 8.1 mph - N/A   Overcast
3:55 PM 28.9 °F 23.9 °F 21.9 °F 75% 30.23 in 10.0 mi NE 4.6 mph - N/A   Overcast
4:55 PM 28.9 °F - 21.9 °F 75% 30.23 in 10.0 mi Calm Calm - N/A   Overcast
5:55 PM 28.0 °F - 23.0 °F 81% 30.24 in 10.0 mi Calm Calm - N/A   Overcast
6:55 PM 28.9 °F - 23.0 °F 78% 30.25 in 10.0 mi Calm Calm - N/A   Overcast
7:55 PM 28.9 °F 25.2 °F 23.0 °F 78% 30.25 in 10.0 mi ESE 3.5 mph - N/A   Overcast
8:55 PM 28.9 °F 25.2 °F 23.0 °F 78% 30.26 in 10.0 mi ENE 3.5 mph - N/A   Overcast
9:55 PM 28.9 °F 23.9 °F 23.0 °F 78% 30.26 in 10.0 mi East 4.6 mph - N/A   Overcast
10:42 PM 28.4 °F 22.2 °F 23.0 °F 80% 30.20 in 10.0 mi East 5.8 mph - N/A   Scattered Clouds
10:55 PM 27.0 °F 20.5 °F 23.0 °F 85% 30.26 in 10.0 mi East 5.8 mph - N/A   Clear
11:55 PM 27.0 °F - 23.0 °F 85% 30.28 in 10.0 mi Calm Calm - N/A   Clear